Temperature
15 15 15 14 14 14 14 13 13 13 13 14 14 14 14 15 15 15 15 16 16 16 16 17 17 17 17 17 18 18 18 18 18 18 18 19 19 19 19 19 18 18 18
15 15 14 14 14 13 13 13 13 13 13 13 13 13 14 14 14 15 15 15 15 16 16 16 16 17 17 17 17 17 17 17 18 18 18 18 18 18 18 18 18 18 18
15 14 14 14 14 13 13 13 13 13 13 13 13 13 14 14 14 14 15 15 15 15 16 16 16 16 16 17 17 17 17 17 17 18 18 18 18 18 18 18 18 18 18
15 14 14 14 13 13 13 13 12 12 12 13 13 13 13 13 13 14 14 14 15 15 15 15 16 16 16 16 17 17 17 17 17 17 17 18 18 18 18 18 18 18 18
15 14 14 14 13 13 13 12 12 12 12 12 12 12 13 13 13 13 14 14 14 15 15 15 15 15 16 16 16 16 16 16 17 17 17 17 17 18 18 18 18 18 18
15 14 14 14 13 13 13 12 12 12 12 12 12 12 12 12 13 13 13 14 14 14 14 15 15 15 15 16 16 16 16 16 16 17 17 17 17 17 18 18 18 18 18
15 14 14 14 13 13 13 12 12 12 12 12 12 12 12 12 12 12 13 13 13 14 14 14 15 15 15 15 15 16 16 16 16 16 16 17 17 17 17 17 17 17 17
15 14 14 14 13 13 13 12 12 12 12 12 12 12 12 12 12 12 12 13 13 13 14 14 14 15 15 15 15 15 16 16 16 16 16 16 16 16 17 17 17 17 17
15 15 14 14 13 13 13 12 12 12 12 11 12 12 12 12 12 12 12 12 13 13 13 14 14 14 14 15 15 15 15 15 16 16 16 16 16 16 16 16 16 16 16
15 15 14 14 13 13 13 12 12 12 11 11 11 11 11 12 12 12 12 12 12 13 13 13 13 14 14 14 14 15 15 15 15 15 15 16 16 16 16 16 16 16 16
15 15 14 14 14 13 13 12 12 12 12 11 11 11 11 11 11 12 12 12 12 12 12 13 13 13 14 14 14 14 15 15 15 15 15 15 15 15 15 15 15 15 15
15 15 15 14 14 13 13 13 12 12 12 11 11 11 11 11 11 11 11 12 12 12 12 12 12 13 13 13 14 14 14 14 15 15 15 15 15 15 15 15 15 15 15
16 15 15 14 14 14 13 13 12 12 12 11 11 11 11 11 11 11 11 11 11 12 12 12 12 12 13 13 13 13 14 14 14 14 14 15 14 14 14 14 14 15 15
16 15 15 15 14 14 13 13 13 12 12 12 11 11 11 11 11 11 11 11 11 11 12 12 12 12 12 12 13 13 13 13 14 14 14 14 14 14 14 14 14 14 14
16 15 15 15 14 14 14 13 13 12 12 12 11 11 11 11 11 11 11 11 11 11 11 11 11 12 12 12 12 12 13 13 13 13 14 14 14 14 14 14 14 14 14
16 16 15 15 15 14 14 13 13 12 12 12 11 11 11 11 10 10 10 10 10 10 11 11 11 11 11 11 12 12 12 12 13 13 13 13 13 13 13 13 14 14 14
16 16 15 15 15 14 14 13 13 12 12 12 11 11 11 10 10 10 10 10 10 10 10 10 11 11 11 11 12 12 12 12 12 12 13 13 13 13 13 13 13 13 13
16 16 15 15 15 14 14 13 13 13 12 12 11 11 11 10 10 10 10 10 10 10 10 10 10 11 11 11 11 11 12 12 12 12 12 12 13 13 13 13 13 13 13
16 16 15 15 15 14 14 14 13 13 12 12 11 11 10 10 10 10 10 10 10 10 10 10 10 10 11 11 11 11 11 12 12 12 12 12 12 12 13 13 13 13 13
16 16 16 15 15 14 14 14 13 13 12 11 11 11 11 10 10 10 10 10 10 10 10 10 10 10 10 11 11 11 11 11 11 11 12 12 12 12 13 13 13 13 13
17 16 16 15 15 15 14 14 13 13 12 11 11 11 11 10 10 10 10 10 10 10 10 10 10 10 10 10 11 11 11 11 11 11 11 12 12 12 12 13 13 13 13
17 16 16 15 15 15 14 14 13 13 12 12 11 11 11 11 11 10 10 10 10 10 10 10 10 10 10 10 10 11 11 11 11 11 11 12 12 12 12 12 13 13 13
17 16 16 16 15 15 15 14 14 13 13 12 12 11 11 11 11 11 10 10 10 10 10 10 10 10 10 10 10 10 11 11 11 11 11 11 12 12 12 12 12 13 13
17 17 16 16 16 15 15 15 14 14 13 12 12 12 12 11 11 11 11 11 10 10 10 10 10 10 10 10 10 10 10 11 11 11 11 11 12 12 12 12 12 12 12
17 17 17 16 16 16 15 15 14 14 13 13 13 12 12 12 11 11 11 11 11 11 11 10 10 10 10 10 10 10 10 11 11 11 11 11 12 12 12 12 12 12 12
18 17 17 17 17 16 16 15 15 14 14 13 13 13 12 12 12 11 11 11 11 11 11 11 11 11 11 10 10 10 11 11 11 11 11 11 11 12 12 12 12 12 12
Wind_Speed
4 5 6 6 6 7 7 7 7 8 6 5 4 4 5 5 5 4 6 7 7 7 5 5 5 6 6 7 7 5 4 3 3 3 1 1 1 5 7 7 7 9 13
5 6 6 6 6 7 7 7 8 8 7 5 5 4 5 5 5 4 4 6 6 6 5 6 6 6 6 6 7 5 4 4 4 4 3 1 2 2 3 5 8 9 9
3 5 6 6 6 7 7 8 8 8 8 7 5 5 4 4 3 4 4 4 6 6 5 6 6 7 7 7 8 7 7 5 4 3 5 5 5 3 2 3 5 7 7
3 4 5 6 7 7 7 7 7 7 8 7 6 6 4 4 5 4 5 6 5 5 6 6 6 7 7 7 8 8 6 6 5 3 3 3 4 4 3 1 1 4 6
3 4 5 5 6 6 7 7 7 7 8 7 7 6 5 5 5 5 6 6 5 5 5 5 6 7 7 7 7 7 7 6 6 5 4 3 2 2 4 3 2 2 2
3 4 5 5 6 6 6 7 7 8 8 8 8 7 7 7 7 7 6 5 5 5 5 5 5 6 6 7 8 8 8 8 7 6 5 4 4 4 3 3 3 3 1
3 4 6 6 7 7 7 7 7 8 8 9 8 8 7 7 7 6 6 5 4 4 5 5 4 4 5 6 7 8 8 9 8 8 6 5 5 4 4 4 3 3 1
4 4 5 5 6 6 6 6 7 7 8 8 9 8 7 5 5 5 5 4 4 4 5 5 4 3 4 5 6 6 8 8 8 9 8 6 6 5 5 5 5 4 2
4 4 5 5 5 5 6 6 6 6 8 8 8 8 8 7 6 6 5 4 4 4 4 4 3 2 2 3 3 4 6 7 8 8 9 7 6 6 5 5 5 6 5
4 4 4 5 4 4 4 4 4 5 6 7 7 6 8 7 7 6 7 7 7 6 6 5 4 3 2 1 2 3 4 5 6 6 7 7 6 6 6 5 5 5 5
5 4 5 5 4 4 4 3 5 5 5 7 6 7 8 8 8 7 7 7 7 8 8 6 5 5 4 2 1 2 3 5 5 5 7 7 7 6 6 5 5 5 5
5 5 4 4 3 4 4 3 3 4 4 5 6 7 7 7 8 8 8 8 7 7 7 7 6 6 6 5 3 1 1 3 4 5 6 7 6 7 6 6 6 6 5
5 4 4 4 4 4 3 3 2 3 3 4 5 7 7 7 7 7 7 8 7 7 7 7 7 6 6 6 4 2 1 0 2 4 6 7 7 7 6 7 7 5 5
5 4 4 4 4 4 3 2 2 2 2 3 5 6 6 6 6 6 7 7 7 7 7 7 7 6 6 5 5 4 2 1 0 2 4 5 7 7 8 7 7 7 6
5 5 4 4 4 3 3 2 1 1 2 3 4 5 5 6 6 6 6 7 7 7 6 6 7 7 6 6 5 3 2 1 1 1 2 4 6 9 8 7 8 8 6
6 5 4 4 3 4 3 1 1 0 1 2 3 4 5 6 6 6 6 6 6 6 6 7 7 7 6 9 9 4 2 2 2 2 3 3 5 7 8 9 10 10 8
6 5 4 4 4 5 4 4 3 1 2 2 2 3 4 5 6 6 6 6 6 6 6 6 7 7 8 11 9 7 3 3 3 3 3 3 4 5 5 7 8 7 8
7 5 4 3 3 3 3 4 3 3 2 1 2 3 3 4 5 6 6 6 5 5 5 6 7 7 9 12 9 6 5 4 4 4 4 4 5 5 6 7 6 5 4
7 6 5 4 3 3 5 6 4 3 2 1 1 1 2 3 5 6 6 4 4 5 4 4 6 7 8 13 10 6 4 4 5 5 5 5 5 7 9 8 8 7 5
6 5 4 3 4 3 6 7 5 3 2 2 2 2 1 2 3 5 4 4 3 4 4 5 6 7 8 12 11 7 4 5 5 5 5 7 7 8 8 7 8 8 6
7 6 5 4 4 5 7 7 5 5 5 4 2 1 1 2 2 3 4 4 4 4 5 5 6 7 9 11 12 9 4 4 5 4 4 4 7 8 8 7 6 8 8
8 7 5 5 5 5 8 7 7 6 5 4 3 2 2 1 1 3 4 4 4 5 5 5 5 6 7 9 10 12 9 6 5 4 3 4 7 8 7 7 9 12 10
8 7 6 6 5 6 8 8 7 7 5 4 3 3 2 1 0 1 2 3 4 3 3 4 4 5 5 7 11 12 11 9 5 4 6 7 8 8 7 8 11 9 7
8 7 7 7 6 7 8 9 8 7 6 5 4 4 3 2 1 0 1 1 2 2 2 3 3 4 4 5 6 5 5 7 6 5 7 9 10 8 8 8 7 6 6
8 7 8 8 8 8 8 8 8 8 7 6 5 5 5 4 3 1 1 1 2 2 1 1 1 2 3 4 6 4 4 3 3 4 5 5 5 5 5 5 5 5 5
9 8 9 9 8 8 8 9 8 8 7 6 5 5 5 4 4 3 2 3 3 3 2 2 2 2 2 4 4 5 5 5 6 6 5 4 4 5 4 5 4 4 5
Wind_Direction
341 352 352 353 353 349 346 339 335 329 333 328 319 308 302 297 294 282 279 274 261 251 237 235 224 207 203 205 196 191 198 202 174 141 174 319 200 186 187 185 184 190 195
348 347 350 352 348 338 335 335 336 330 329 319 300 275 275 277 274 281 291 284 273 258 245 228 220 213 207 205 201 191 185 197 177 154 144 163 329 282 195 181 188 191 189
341 333 338 339 337 334 332 334 328 328 326 325 319 314 307 302 308 307 299 289 282 265 250 235 225 217 207 207 205 197 190 196 197 178 157 159 200 226 262 197 190 185 183
319 321 327 331 329 323 324 324 323 326 327 329 331 325 320 303 286 287 287 292 290 274 256 242 231 225 220 213 210 202 196 189 194 198 197 174 160 159 190 259 190 180 182
308 314 315 314 313 320 326 322 325 328 328 330 331 325 317 299 294 295 298 300 297 287 269 247 235 230 224 219 213 205 200 197 193 184 179 171 159 143 147 176 179 149 173
306 312 314 312 314 321 330 330 334 328 328 331 330 326 319 316 316 314 313 310 302 295 285 260 242 233 225 219 214 207 205 205 198 191 183 171 164 173 157 160 169 168 179
294 306 317 319 321 323 326 329 332 326 327 333 332 326 320 317 312 309 307 309 308 303 301 283 256 240 231 222 214 207 209 205 198 197 199 193 189 167 158 154 155 154 163
290 299 302 308 317 318 320 325 330 328 331 337 335 333 332 329 324 319 315 311 303 297 308 305 282 258 239 226 210 209 211 206 203 203 197 194 196 183 172 163 154 150 165
291 292 298 305 313 317 316 317 325 331 334 336 336 341 346 348 344 341 340 335 330 329 337 333 317 303 259 232 206 209 212 205 205 205 199 195 196 191 185 172 165 160 177
288 292 294 293 299 307 313 323 328 330 330 338 345 353 350 354 354 359 1 358 357 359 0 359 355 345 341 280 213 205 207 199 201 201 197 197 195 185 183 179 173 168 167
260 268 277 286 296 312 320 326 332 340 343 345 349 356 357 1 7 10 5 3 8 9 9 9 8 6 7 360 336 221 201 198 196 191 192 197 189 184 183 177 174 175 164
240 248 265 287 302 304 307 317 327 341 342 349 359 1 0 6 11 10 6 6 11 11 11 11 15 14 16 16 13 331 236 201 196 189 185 187 184 182 180 179 180 177 165
240 251 271 282 283 282 288 309 321 334 349 6 10 8 7 9 9 6 5 8 12 13 14 14 13 10 9 8 2 360 12 211 196 188 185 180 176 180 176 178 177 173 167
233 239 259 270 271 267 269 292 306 317 2 15 17 12 3 3 2 1 2 4 6 11 12 12 7 4 3 4 360 6 20 28 92 171 179 177 179 182 178 175 171 165 158
223 224 238 253 261 255 259 268 269 312 11 20 16 4 358 0 2 2 360 360 3 9 4 8 6 1 1 5 6 6 17 43 61 97 141 163 175 180 176 170 167 162 160
215 217 232 240 243 237 231 212 192 238 57 33 11 2 5 3 360 355 354 357 358 358 4 7 4 4 3 3 16 27 37 60 79 91 99 125 144 164 164 161 165 166 167
206 208 224 241 241 227 209 185 181 146 87 41 8 6 8 4 352 348 354 355 354 359 2 1 4 359 352 8 17 33 57 62 69 86 102 113 118 123 129 142 147 158 168
198 208 221 239 239 212 182 159 139 122 108 73 9 359 5 359 348 350 350 346 347 353 356 360 2 360 3 14 20 39 59 65 65 75 89 103 107 115 118 117 111 107 120
197 205 208 205 198 187 165 145 137 130 118 115 318 319 348 356 352 349 342 341 350 356 357 359 6 8 2 13 24 53 62 73 72 71 74 95 105 117 115 113 108 96 87
187 191 186 182 186 182 153 147 156 159 184 213 229 252 294 348 349 343 338 341 351 353 0 15 11 13 8 12 28 54 71 81 78 69 63 72 94 109 109 113 115 109 102
190 182 173 186 202 175 153 156 174 198 216 210 205 228 264 288 335 349 349 357 10 15 14 17 12 13 11 15 32 49 65 84 87 79 63 65 88 97 98 100 109 117 113
194 185 183 205 210 177 159 169 197 215 215 203 202 222 256 292 25 21 11 15 25 31 18 15 12 8 6 16 32 47 56 70 86 80 65 70 86 95 99 100 109 111 104
199 196 193 208 216 192 175 183 209 210 206 203 212 219 224 258 30 49 26 20 25 31 16 18 15 0 3 14 31 40 48 56 72 73 75 80 84 85 88 104 109 106 105
201 201 196 207 219 210 199 200 202 198 196 204 213 211 207 218 244 5 40 46 25 20 11 10 5 357 4 10 12 17 30 45 59 62 69 73 75 78 83 90 95 98 112
203 198 199 208 218 212 210 210 201 191 195 208 213 209 207 204 207 215 242 240 249 241 256 290 319 351 360 344 354 20 28 37 53 68 67 67 72 75 75 79 85 93 104
202 201 206 211 217 209 212 212 204 192 189 201 209 209 208 207 204 206 257 288 260 278 278 267 258 286 302 329 8 30 40 62 81 81 81 79 82 91 97 102 96 94 109
Height
1558 1555 1552 1549 1545 1541 1538 1534 1530 1527 1524 1521 1519 1517 1515 1514 1514 1513 1513 1513 1513 1514 1516 1517 1519 1521 1522 1524 1527 1530 1532 1535 1538 1541 1543 1546 1548 1549 1551 1553 1554 1556 1558
1557 1554 1551 1547 1543 1539 1535 1531 1528 1524 1521 1518 1516 1514 1512 1510 1509 1509 1509 1508 1508 1509 1510 1511 1513 1515 1517 1519 1522 1524 1527 1530 1533 1536 1539 1541 1545 1545 1547 1549 1551 1553 1555
1556 1553 1549 1546 1542 1538 1534 1530 1526 1523 1519 1516 1513 1511 1509 1507 1506 1505 1504 1504 1504 1504 1505 1506 1507 1509 1512 1514 1516 1519 1521 1524 1528 1531 1534 1536 1538 1541 1543 1545 1548 1550 1552
1555 1552 1548 1545 1541 1537 1533 1529 1525 1521 1518 1514 1511 1508 1505 1503 1502 1501 1499 1499 1499 1499 1499 1500 1501 1503 1505 1508 1511 1513 1515 1519 1522 1525 1529 1532 1533 1536 1538 1541 1544 1546 1548
1554 1551 1548 1544 1540 1537 1532 1528 1524 1520 1517 1513 1509 1506 1503 1501 1499 1497 1496 1495 1494 1494 1494 1495 1496 1497 1500 1502 1505 1507 1510 1513 1516 1519 1522 1526 1529 1531 1533 1535 1539 1542 1544
1553 1550 1547 1544 1540 1536 1532 1528 1524 1520 1516 1512 1508 1505 1502 1499 1496 1494 1492 1491 1490 1490 1490 1490 1491 1492 1494 1496 1499 1502 1504 1507 1510 1514 1517 1520 1523 1525 1528 1531 1534 1537 1540
1552 1549 1546 1543 1539 1535 1532 1528 1524 1520 1516 1512 1508 1504 1500 1497 1494 1492 1490 1488 1487 1487 1486 1486 1487 1487 1489 1491 1493 1496 1499 1502 1504 1508 1511 1514 1517 1521 1524 1527 1529 1532 1535
1551 1548 1546 1542 1539 1535 1532 1528 1524 1520 1516 1512 1508 1503 1500 1496 1493 1491 1488 1487 1485 1484 1484 1483 1483 1483 1484 1486 1487 1489 1492 1496 1499 1502 1505 1508 1511 1515 1518 1522 1525 1528 1531
1550 1548 1545 1542 1539 1535 1532 1528 1524 1520 1516 1512 1508 1504 1500 1496 1493 1490 1488 1486 1484 1482 1481 1480 1480 1480 1481 1482 1483 1485 1488 1491 1493 1496 1499 1502 1505 1509 1513 1516 1520 1524 1526
1549 1547 1544 1541 1538 1535 1532 1528 1525 1521 1517 1513 1509 1505 1501 1497 1494 1491 1488 1486 1483 1481 1480 1478 1478 1478 1478 1479 1480 1481 1483 1485 1488 1491 1493 1496 1500 1503 1507 1510 1514 1518 1521
1548 1546 1544 1541 1538 1535 1532 1529 1525 1521 1517 1514 1510 1506 1502 1499 1495 1492 1489 1486 1483 1481 1479 1478 1477 1476 1476 1477 1477 1478 1479 1481 1483 1486 1488 1491 1494 1498 1501 1505 1508 1512 1516
1547 1545 1543 1541 1538 1535 1532 1529 1526 1522 1518 1515 1511 1507 1503 1500 1496 1493 1490 1487 1484 1482 1480 1478 1476 1475 1475 1475 1475 1475 1476 1478 1479 1481 1484 1487 1490 1493 1496 1499 1503 1507 1511
1545 1544 1542 1540 1537 1535 1532 1529 1526 1523 1519 1516 1512 1508 1505 1501 1497 1494 1491 1488 1485 1483 1481 1479 1477 1475 1474 1474 1474 1474 1474 1475 1476 1478 1480 1482 1485 1488 1491 1495 1498 1502 1506
1544 1543 1541 1539 1537 1534 1532 1529 1526 1523 1520 1516 1513 1509 1505 1502 1499 1495 1492 1489 1486 1484 1481 1479 1477 1476 1475 1474 1473 1472 1473 1473 1474 1476 1477 1480 1482 1485 1488 1491 1495 1498 1502
1543 1541 1540 1538 1536 1534 1532 1529 1527 1524 1521 1517 1514 1510 1507 1503 1500 1496 1493 1490 1487 1484 1482 1480 1478 1476 1475 1474 1473 1472 1472 1472 1473 1474 1475 1478 1480 1483 1485 1488 1491 1495 1499
1541 1540 1538 1537 1535 1533 1531 1529 1527 1524 1521 1518 1514 1511 1508 1505 1501 1498 1494 1491 1488 1486 1483 1481 1479 1477 1475 1474 1473 1473 1472 1472 1473 1473 1475 1477 1479 1482 1484 1487 1490 1493 1496
1539 1538 1537 1536 1534 1532 1531 1529 1527 1524 1522 1518 1515 1512 1509 1506 1502 1499 1496 1493 1490 1487 1484 1482 1480 1478 1476 1475 1474 1473 1473 1473 1473 1474 1475 1477 1479 1481 1484 1487 1490 1493 1496
1537 1536 1535 1534 1533 1532 1530 1528 1527 1524 1522 1519 1516 1513 1510 1507 1504 1501 1497 1494 1491 1489 1486 1483 1481 1479 1477 1476 1475 1474 1474 1474 1474 1475 1476 1477 1479 1481 1484 1486 1489 1492 1495
1535 1535 1534 1533 1532 1531 1529 1528 1526 1524 1522 1519 1517 1514 1511 1508 1505 1502 1499 1496 1493 1490 1488 1485 1483 1480 1479 1477 1476 1475 1475 1475 1475 1476 1478 1479 1481 1483 1485 1488 1490 1493 1496
1533 1533 1533 1532 1531 1530 1529 1528 1526 1524 1522 1519 1517 1515 1512 1509 1506 1503 1500 1498 1495 1492 1490 1487 1484 1482 1480 1479 1477 1477 1476 1476 1477 1478 1480 1481 1483 1485 1487 1489 1492 1494 1497
1531 1531 1531 1531 1530 1529 1528 1527 1525 1524 1522 1520 1518 1516 1513 1510 1508 1505 1502 1499 1497 1494 1492 1489 1487 1484 1482 1481 1480 1479 1478 1478 1479 1480 1482 1483 1485 1487 1489 1492 1494 1496 1499
1529 1529 1529 1529 1529 1528 1527 1526 1525 1523 1521 1520 1518 1516 1514 1511 1509 1506 1503 1501 1498 1496 1494 1492 1489 1487 1485 1483 1482 1481 1481 1481 1482 1483 1484 1486 1488 1490 1493 1495 1497 1499 1502
1527 1527 1527 1527 1527 1526 1526 1524 1524 1522 1521 1520 1518 1516 1514 1512 1510 1507 1505 1502 1500 1498 1495 1493 1491 1489 1487 1486 1485 1484 1484 1484 1485 1486 1487 1489 1491 1494 1496 1498 1500 1502 1504
1524 1525 1525 1525 1525 1524 1524 1523 1522 1521 1520 1519 1518 1516 1515 1513 1511 1509 1506 1504 1502 1499 1497 1495 1493 1491 1490 1488 1487 1487 1487 1487 1488 1489 1491 1493 1495 1497 1499 1501 1503 1505 1507
1521 1522 1522 1522 1522 1522 1521 1521 1520 1519 1519 1518 1517 1515 1514 1513 1511 1509 1507 1505 1503 1501 1499 1497 1495 1494 1492 1491 1490 1490 1490 1490 1491 1493 1494 1496 1498 1500 1502 1503 1505 1508 1510
1518 1518 1519 1519 1519 1519 1519 1519 1518 1518 1517 1516 1515 1514 1513 1512 1511 1510 1508 1506 1504 1502 1500 1499 1497 1496 1495 1493 1493 1493 1493 1494 1495 1496 1497 1499 1500 1502 1504 1505 1507 1509 1511